Blue Bay — V2CE6 — position and weather

sailwx.info

Track history (hours):
 
Tides and Currents Weather Stations Pressure Air Temp Water Temp Dewpoint Dewpoint Depression Visibility Wind Speed Wind Dir Waves Ship Positions

Blue Bay

Last reported at 2014-Oct-26 07:33 UTC. Time now 2014-Oct-26 08:36 UTC.
Position N 51°58' W 010°47'.

Length 89 m; draft 5.5 m.

Type: Cargo ship. MMSI: 304519000.

Date/timePositionNaut miles runAvg speedWind from/ knotsBaromVisibWave heightAir tempDewpointWater temp
2014-Oct-26 07:33N 51°58' W 010°47'12 5.9
2014-Oct-26 05:33N 52°09' W 010°38'5 5.3
2014-Oct-26 04:33N 52°12' W 010°31'6 5.4
2014-Oct-26 03:32N 52°15' W 010°24'5 5.6
2014-Oct-26 02:33N 52°18' W 010°17'6 5.7
2014-Oct-26 01:33N 52°21' W 010°09'6 5.9
2014-Oct-26 00:33N 52°25' W 010°01'6 6.4
2014-Oct-25 23:32N 52°29' W 009°53'8 7.6
2014-Oct-25 22:27N 52°34' W 009°42'0 0.0
2014-Oct-24 01:05N 52°34' W 009°42'4 7.0
2014-Oct-24 00:31N 52°31' W 009°47'7 6.8
2014-Oct-23 23:26N 52°27' W 009°57'6 6.7
2014-Oct-23 22:33N 52°23' W 010°04'9 7.7
2014-Oct-23 21:26N 52°18' W 010°16'7 8.0
2014-Oct-23 20:33N 52°15' W 010°25'7 7.3
2014-Oct-23 19:33N 52°10' W 010°35'17 8.5
2014-Oct-23 17:33N 51°55' W 010°46'22 9.1
2014-Oct-23 15:07N 51°36' W 010°27'7 8.4
2014-Oct-23 14:20N 51°32' W 010°19'7 8.4
2014-Oct-23 13:33N 51°28' W 010°10'9 8.5
2014-Oct-23 12:33N 51°24' W 009°58'17 8.5
2014-Oct-23 10:33N 51°21' W 009°31'9 9.0
2014-Oct-23 09:33N 51°24' W 009°17'13 9.8
2014-Oct-23 08:11N 51°26' W 008°56'610.2
2014-Oct-23 07:33N 51°27' W 008°46'10 9.8
2014-Oct-23 06:33N 51°30' W 008°31'10 9.6
2014-Oct-23 05:33N 51°34' W 008°17'10 9.8
2014-Oct-23 04:33N 51°38' W 008°02'10 9.6
2014-Oct-23 03:33N 51°42' W 007°48'10 9.6
2014-Oct-23 02:33N 51°46' W 007°34'10 9.8
2014-Oct-23 01:33N 51°50' W 007°20'1010.1
2014-Oct-23 00:33N 51°53' W 007°04'1010.3
2014-Oct-22 23:34N 51°57' W 006°49'1010.3
2014-Oct-22 22:33N 52°01' W 006°34'10 9.8
2014-Oct-22 21:33N 52°05' W 006°19'8 8.5
2014-Oct-22 20:33N 52°10' W 006°08'8 8.0
2014-Oct-22 19:33N 52°17' W 006°05'9 8.6
2014-Oct-22 18:33N 52°26' W 006°04'8 7.8
2014-Oct-22 17:33N 52°34' W 006°03'70 9.9
2014-Oct-22 10:28N 53°44' W 006°00'9 9.8
2014-Oct-22 09:33N 53°53' W 006°01'9 8.9
2014-Oct-22 08:33N 54°02' W 006°05'7 0.2
2014-Oct-20 20:21N 54°06' W 006°15'5 5.9
2014-Oct-20 19:28N 54°02' W 006°08'5 4.0
2014-Oct-20 18:16N 53°59' W 006°01'0 0.0
2014-Oct-20 17:31N 53°59' W 006°01'0 0.0
2014-Oct-20 16:19N 53°59' W 006°01'0 0.0
2014-Oct-20 15:31N 53°59' W 006°01'0 0.0
2014-Oct-20 14:31N 53°59' W 006°01'0 0.0
2014-Oct-20 13:22N 53°59' W 006°01'0 0.0
2014-Oct-20 12:31N 53°59' W 006°01'0 0.0
2014-Oct-20 09:25N 53°59' W 006°01'0 0.0
2014-Oct-20 08:25N 53°59' W 006°01'0 0.1
2014-Oct-20 07:31N 53°59' W 006°01'2 1.6
2014-Oct-20 06:33N 53°59' W 005°59'1 1.0
2014-Oct-20 05:34N 53°59' W 006°01'1 1.2
2014-Oct-20 04:33N 53°57' W 006°01'7 7.4
2014-Oct-20 03:33N 53°50' W 006°00'80 8.7
2014-Oct-19 18:23N 52°31' W 005°51'810.3
2014-Oct-19 17:34N 52°22' W 005°49'253 6.5
2014-Oct-18 02:26N 49°40' W 000°40'9 9.7
2014-Oct-18 01:33N 49°38' W 000°27'1010.4
2014-Oct-18 00:33N 49°32' W 000°13'1110.7
2014-Oct-17 23:33N 49°27' E 000°01'1211.5
2014-Oct-17 22:33N 49°26' E 000°19'1210.6
2014-Oct-17 21:26N 49°26' E 000°37'  
Track history (hours):
 
Tides and Currents Weather Stations Pressure Air Temp Water Temp Dewpoint Dewpoint Depression Visibility Wind Speed Wind Dir Waves Ship Positions

Blue Bay

Last reported at 2014-Oct-26 07:33 UTC. Time now 2014-Oct-26 08:36 UTC.
Position N 51°58' W 010°47'.

Length 89 m; draft 5.5 m.

Type: Cargo ship. MMSI: 304519000.

Date/timePositionNaut miles runAvg speedWind from/ knotsBaromVisibWave heightAir tempDewpointWater temp
2014-Oct-26 07:33N 51°58' W 010°47'12 5.9
2014-Oct-26 05:33N 52°09' W 010°38'5 5.3
2014-Oct-26 04:33N 52°12' W 010°31'6 5.4
2014-Oct-26 03:32N 52°15' W 010°24'5 5.6
2014-Oct-26 02:33N 52°18' W 010°17'6 5.7
2014-Oct-26 01:33N 52°21' W 010°09'6 5.9
2014-Oct-26 00:33N 52°25' W 010°01'6 6.4
2014-Oct-25 23:32N 52°29' W 009°53'8 7.6
2014-Oct-25 22:27N 52°34' W 009°42'0 0.0
2014-Oct-24 01:05N 52°34' W 009°42'4 7.0
2014-Oct-24 00:31N 52°31' W 009°47'7 6.8
2014-Oct-23 23:26N 52°27' W 009°57'6 6.7
2014-Oct-23 22:33N 52°23' W 010°04'9 7.7
2014-Oct-23 21:26N 52°18' W 010°16'7 8.0
2014-Oct-23 20:33N 52°15' W 010°25'7 7.3
2014-Oct-23 19:33N 52°10' W 010°35'17 8.5
2014-Oct-23 17:33N 51°55' W 010°46'22 9.1
2014-Oct-23 15:07N 51°36' W 010°27'7 8.4
2014-Oct-23 14:20N 51°32' W 010°19'7 8.4
2014-Oct-23 13:33N 51°28' W 010°10'9 8.5
2014-Oct-23 12:33N 51°24' W 009°58'17 8.5
2014-Oct-23 10:33N 51°21' W 009°31'9 9.0
2014-Oct-23 09:33N 51°24' W 009°17'13 9.8
2014-Oct-23 08:11N 51°26' W 008°56'610.2
2014-Oct-23 07:33N 51°27' W 008°46'10 9.8
2014-Oct-23 06:33N 51°30' W 008°31'10 9.6
2014-Oct-23 05:33N 51°34' W 008°17'10 9.8
2014-Oct-23 04:33N 51°38' W 008°02'10 9.6
2014-Oct-23 03:33N 51°42' W 007°48'10 9.6
2014-Oct-23 02:33N 51°46' W 007°34'10 9.8
2014-Oct-23 01:33N 51°50' W 007°20'1010.1
2014-Oct-23 00:33N 51°53' W 007°04'1010.3
2014-Oct-22 23:34N 51°57' W 006°49'1010.3
2014-Oct-22 22:33N 52°01' W 006°34'10 9.8
2014-Oct-22 21:33N 52°05' W 006°19'8 8.5
2014-Oct-22 20:33N 52°10' W 006°08'8 8.0
2014-Oct-22 19:33N 52°17' W 006°05'9 8.6
2014-Oct-22 18:33N 52°26' W 006°04'8 7.8
2014-Oct-22 17:33N 52°34' W 006°03'70 9.9
2014-Oct-22 10:28N 53°44' W 006°00'9 9.8
2014-Oct-22 09:33N 53°53' W 006°01'9 8.9
2014-Oct-22 08:33N 54°02' W 006°05'7 0.2
2014-Oct-20 20:21N 54°06' W 006°15'5 5.9
2014-Oct-20 19:28N 54°02' W 006°08'5 4.0
2014-Oct-20 18:16N 53°59' W 006°01'0 0.0
2014-Oct-20 17:31N 53°59' W 006°01'0 0.0
2014-Oct-20 16:19N 53°59' W 006°01'0 0.0
2014-Oct-20 15:31N 53°59' W 006°01'0 0.0
2014-Oct-20 14:31N 53°59' W 006°01'0 0.0
2014-Oct-20 13:22N 53°59' W 006°01'0 0.0
2014-Oct-20 12:31N 53°59' W 006°01'0 0.0
2014-Oct-20 09:25N 53°59' W 006°01'0 0.0
2014-Oct-20 08:25N 53°59' W 006°01'0 0.1
2014-Oct-20 07:31N 53°59' W 006°01'2 1.6
2014-Oct-20 06:33N 53°59' W 005°59'1 1.0
2014-Oct-20 05:34N 53°59' W 006°01'1 1.2
2014-Oct-20 04:33N 53°57' W 006°01'7 7.4
2014-Oct-20 03:33N 53°50' W 006°00'80 8.7
2014-Oct-19 18:23N 52°31' W 005°51'810.3
2014-Oct-19 17:34N 52°22' W 005°49'253 6.5
2014-Oct-18 02:26N 49°40' W 000°40'9 9.7
2014-Oct-18 01:33N 49°38' W 000°27'1010.4
2014-Oct-18 00:33N 49°32' W 000°13'1110.7
2014-Oct-17 23:33N 49°27' E 000°01'1211.5
2014-Oct-17 22:33N 49°26' E 000°19'1210.6
2014-Oct-17 21:26N 49°26' E 000°37'  

Dump ship's entire track history